Regional Weather Roundup
Issued by NWS Memphis, TN

Home | Current Version | Previous Version | Text Only | Print | Product List | Glossary On
Versions: 1 2 3 4 5 6 7 8 9 10 11 12 13 14 15 16 17 18 19 20 21 22 23 24 25 26 27 28 29 30 31 32 33 34 35 36 37 38 39 40 41 42 43 44 45 46 47 48 49 50
014
ASUS44 KMEG 241010
RWRMEG
MEMPHIS CWA HOURLY WEATHER ROUNDUP
NATIONAL WEATHER SERVICE MEMPHIS TN
500 AM CDT TUE MAY 24 2016

...WEST TENNESSEE...

CITY           SKY/WX    TMP DP  RH WIND       PRES   REMARKS
MEMPHIS INTL   PTCLDY    68  54  60 S5        30.00R
NWS MEMPHIS      N/A     64 N/A N/A MISG        N/A
JACKSON        MOCLDY    59  56  89 CALM      30.02R
LEXINGTON      CLEAR     55  55 100 CALM      30.03S
DYERSBURG      CLOUDY    64  55  72 SE5       30.01S
UNION CITY     PTCLDY    63  63 100 CALM      30.01R
PARIS          PTCLDY    57  55  94 CALM      30.04R


...EASTERN ARKANSAS...

CITY           SKY/WX    TMP DP  RH WIND       PRES   REMARKS
JONESBORO      CLOUDY    67  57  70 S3        29.98F
WEST MEMPHIS   MOCLDY    66  56  70 S3        29.99R
BATESVILLE     CLOUDY    66  59  77 SE3       29.97S
NEWPORT        CLEAR     65  58  78 S6        29.98F
WALNUT RIDGE   CLOUDY    66  57  72 CALM      29.98R
BLYTHEVILLE    CLOUDY    68  56  65 S7        30.00S
SEARCY         PTCLDY    62  61  96 CALM      29.98S
STUTTGART      CLEAR     66  57  72 SE6       29.98S
PINE BLUFF     CLEAR     64  60  87 CALM      29.98R
MONTICELLO     CLEAR     63  58  83 CALM      29.98R


...NORTH MISSISSIPPI...

CITY           SKY/WX    TMP DP  RH WIND       PRES   REMARKS
TUPELO         CLOUDY    61  55  81 CALM      30.03R
OXFORD         CLOUDY    64  54  68 SE5       30.04R
BATESVILLE     CLEAR     60  58  94 CALM      30.02R
OLIVE BRANCH   PTCLDY    64  59  82 S3        30.00F
TUNICA         CLEAR     63  55  77 S3        30.00S
CLARKSDALE     CLEAR     66  59  77 SE6       30.00S
GREENWOOD      PTCLDY    63  57  81 CALM      30.01R
COLUMBUS       CLOUDY    58  55  91 CALM      30.03R
STARKVILLE     CLOUDY    59  55  88 CALM      30.03R
GOLDEN TRIANGL CLOUDY    64  57  77 CALM      30.03S


...SOUTHEAST MISSOURI...

CITY           SKY/WX    TMP DP  RH WIND       PRES   REMARKS
KENNETT        CLOUDY    68  59  73 CALM      29.98R
WEST PLAINS    PTCLDY    63  56  78 CALM      29.99R
POPLAR BLUFF   CLOUDY    65  62  90 N3        29.98R
CAPE GIRARDEAU CLOUDY    64  61  90 CALM      30.00R


...NORTHWEST ALABAMA...

CITY           SKY/WX    TMP DP  RH WIND       PRES   REMARKS
MUSCLE SHOALS  PTCLDY    58  55  90 CALM      30.07R


...MIDDLE TENNESSEE...

CITY           SKY/WX    TMP DP  RH WIND       PRES   REMARKS
NASHVILLE      PTCLDY    58  51  78 NE3       30.06R
CLARKSVILLE    MOCLDY    54  51  90 E3        30.05R
COLUMBIA       CLEAR    N/A N/A N/A CALM      30.05R


...WESTERN KENTUCKY...

CITY           SKY/WX    TMP DP  RH WIND       PRES   REMARKS
PADUCAH        CLOUDY    60  57  89 CALM      30.00S
FORT CAMPBELL  PTCLDY    58  52  81 CALM      30.05R


...CENTRAL ARKANSAS...

CITY           SKY/WX    TMP DP  RH WIND       PRES   REMARKS
LITTLE ROCK    PTCLDY    65  61  87 CALM      29.97R


SKY/WX REPORTED AS FAIR MEANS FEW OR NO CLOUDS BELOW
12 THOUSAND FEET.





USA.gov is the U.S. government's official web portal to all federal, state and local government web resources and services.